JCSAT 2B

Last updated on May 22, 2019, 3:12 a.m. UTC

1 41471U 16028A   19141.87988587 -.00000174  00000-0  00000+0 0  9992
2 41471   0.0147 350.0030 0002002  89.3701 270.6020  1.00272484 11180
UTC
Height (km)
Latitude
Longitude
Inclination
Orbital Period
UTC large
Height (km)
Speed (km/s)
/
Latitude / Longitude
Inclination (degrees)
Orbital Period (minutes)
Azimuth
Elevation
Range (km)
Doppler Factor
iOS Compass Heading
iOS Angle

Next 30 passes for location: Hong Kong

Rise time Rise Azimuth (degrees) Set time Set Azimuth (degrees) Duration Max altitude (degrees)

No matching passes for this satellites